Time,TemperatureF,DewpointF,PressureIn,WindDirection,WindDirectionDegrees,WindSpeedMPH,WindSpeedGustMPH,Humidity,HourlyPrecipIn,Conditions,Clouds,dailyrainin,SoftwareType,DateUTC
2013-01-16 00:03:00,38.2,35.2,30.32,NNE,23,0.0,0.9,89,0.00,,,0.00,WUHU216HW,2013-01-16 08:03:00,
2013-01-16 00:08:00,38.2,35.2,30.32,NNE,23,0.0,0.7,89,0.00,,,0.00,WUHU216HW,2013-01-16 08:08:00,
2013-01-16 00:13:00,38.2,35.2,30.32,NE,45,1.1,1.1,89,0.00,,,0.00,WUHU216HW,2013-01-16 08:13:00,
2013-01-16 00:18:00,38.0,35.0,30.32,NE,45,0.0,1.1,89,0.00,,,0.00,WUHU216HW,2013-01-16 08:18:00,
2013-01-16 00:23:00,38.0,35.0,30.32,NE,45,0.0,1.1,89,0.00,,,0.00,WUHU216HW,2013-01-16 08:23:00,
2013-01-16 00:28:00,38.0,35.0,30.32,NE,45,0.2,0.9,89,0.00,,,0.00,WUHU216HW,2013-01-16 08:28:00,
2013-01-16 00:33:00,37.8,34.8,30.32,NE,45,0.0,0.9,89,0.00,,,0.00,WUHU216HW,2013-01-16 08:33:00,
2013-01-16 00:38:00,37.8,34.8,30.32,NE,45,0.0,0.9,89,0.00,,,0.00,WUHU216HW,2013-01-16 08:38:00,
2013-01-16 00:43:00,37.8,35.1,30.32,NE,45,0.0,0.0,90,0.00,,,0.00,WUHU216HW,2013-01-16 08:43:00,
2013-01-16 00:48:00,37.6,34.9,30.32,NW,315,0.0,0.7,90,0.00,,,0.00,WUHU216HW,2013-01-16 08:48:00,
2013-01-16 00:53:00,37.4,34.7,30.32,NW,315,0.0,0.7,90,0.00,,,0.00,WUHU216HW,2013-01-16 08:53:00,
2013-01-16 00:58:00,37.4,34.7,30.32,NW,315,0.0,0.4,90,0.00,,,0.00,WUHU216HW,2013-01-16 08:58:00,
2013-01-16 01:03:00,37.4,34.5,30.32,NW,315,0.0,0.0,89,0.00,,,0.00,WUHU216HW,2013-01-16 09:03:00,
2013-01-16 01:08:00,37.4,34.7,30.32,NW,315,0.0,0.0,90,0.00,,,0.00,WUHU216HW,2013-01-16 09:08:00,
2013-01-16 01:13:00,37.3,34.3,30.32,NW,315,0.0,0.7,89,0.00,,,0.00,WUHU216HW,2013-01-16 09:13:00,
2013-01-16 01:18:00,37.3,34.3,30.32,NW,315,0.0,0.7,89,0.00,,,0.00,WUHU216HW,2013-01-16 09:18:00,
2013-01-16 01:23:00,37.3,34.3,30.32,West,270,0.0,0.0,89,0.00,,,0.00,WUHU216HW,2013-01-16 09:23:00,
2013-01-16 01:28:00,37.3,34.3,30.32,West,270,0.0,0.2,89,0.00,,,0.00,WUHU216HW,2013-01-16 09:28:00,
2013-01-16 01:33:00,37.1,34.1,30.32,West,270,0.0,0.2,89,0.00,,,0.00,WUHU216HW,2013-01-16 09:33:00,
2013-01-16 01:38:00,37.1,34.1,30.32,West,270,0.0,1.6,89,0.00,,,0.00,WUHU216HW,2013-01-16 09:38:00,
2013-01-16 01:43:00,36.9,33.9,30.32,West,270,0.0,1.6,89,0.00,,,0.00,WUHU216HW,2013-01-16 09:43:00,
2013-01-16 01:48:00,36.7,34.0,30.32,NW,315,0.0,0.4,90,0.00,,,0.00,WUHU216HW,2013-01-16 09:48:00,
2013-01-16 01:53:00,36.7,34.0,30.32,West,270,0.7,0.7,90,0.00,,,0.00,WUHU216HW,2013-01-16 09:53:00,
2013-01-16 01:58:00,36.5,33.8,30.32,West,270,0.0,0.9,90,0.00,,,0.00,WUHU216HW,2013-01-16 09:58:00,
2013-01-16 02:03:00,36.4,33.9,30.32,West,270,0.0,0.9,91,0.00,,,0.00,WUHU216HW,2013-01-16 10:03:00,
2013-01-16 02:05:00,36.4,33.9,30.32,NNE,23,0.0,0.9,91,0.00,,,0.00,WUHU216HW,2013-01-16 10:05:00,
2013-01-16 05:31:00,36.5,34.1,30.32,NNE,23,0.0,0.0,91,0.00,,,0.00,WUHU216HW,2013-01-16 13:31:00,
2013-01-16 05:36:00,36.5,34.1,30.32,NNE,23,0.0,0.0,91,0.00,,,0.00,WUHU216HW,2013-01-16 13:36:00,
2013-01-16 06:00:00,35.5,33.6,30.29,WSW,248,0.0,0.0,93,0.00,,,0.00,WUHU216HW,2013-01-16 14:00:00,
2013-01-16 06:05:00,35.6,33.8,30.29,WSW,248,0.0,0.0,93,0.00,,,0.00,WUHU216HW,2013-01-16 14:05:00,
2013-01-16 06:10:00,35.6,33.8,30.29,WSW,248,0.0,0.0,93,0.00,,,0.00,WUHU216HW,2013-01-16 14:10:00,
2013-01-16 06:15:00,35.6,33.8,30.29,WSW,248,0.0,0.0,93,0.00,,,0.00,WUHU216HW,2013-01-16 14:15:00,
2013-01-16 06:20:00,35.6,33.8,30.29,WSW,248,0.0,0.0,93,0.00,,,0.00,WUHU216HW,2013-01-16 14:20:00,
2013-01-16 06:25:00,35.6,33.8,30.29,WSW,248,0.0,0.0,93,0.00,,,0.00,WUHU216HW,2013-01-16 14:25:00,
2013-01-16 06:30:00,35.6,33.8,30.29,NNE,23,0.0,0.0,93,0.00,,,0.00,WUHU216HW,2013-01-16 14:30:00,
2013-01-16 06:35:00,35.6,33.8,30.29,NNE,23,0.0,0.2,93,0.00,,,0.00,WUHU216HW,2013-01-16 14:35:00,
2013-01-16 06:40:00,35.6,33.8,30.29,NNE,23,0.0,0.2,93,0.00,,,0.00,WUHU216HW,2013-01-16 14:40:00,
2013-01-16 06:45:00,35.6,33.8,30.29,NNE,23,0.0,0.0,93,0.00,,,0.00,WUHU216HW,2013-01-16 14:45:00,
2013-01-16 06:50:00,35.6,33.8,30.29,NNE,23,0.0,0.0,93,0.00,,,0.00,WUHU216HW,2013-01-16 14:50:00,
2013-01-16 06:55:00,35.5,33.6,30.29,NW,315,0.0,0.4,93,0.00,,,0.00,WUHU216HW,2013-01-16 14:55:00,
2013-01-16 07:00:00,35.5,33.6,30.29,NW,315,0.0,0.4,93,0.00,,,0.00,WUHU216HW,2013-01-16 15:00:00,
2013-01-16 07:05:00,35.5,33.6,30.29,NW,315,0.0,0.0,93,0.00,,,0.00,WUHU216HW,2013-01-16 15:05:00,
2013-01-16 07:10:00,35.6,33.8,30.29,NW,315,0.0,0.0,93,0.00,,,0.00,WUHU216HW,2013-01-16 15:10:00,
2013-01-16 07:15:00,35.6,33.8,30.29,West,270,0.7,0.7,93,0.00,,,0.00,WUHU216HW,2013-01-16 15:15:00,
2013-01-16 07:20:00,35.6,33.8,30.29,West,270,0.0,0.7,93,0.00,,,0.00,WUHU216HW,2013-01-16 15:20:00,
2013-01-16 07:25:00,35.5,33.6,30.29,West,270,0.0,0.7,93,0.00,,,0.00,WUHU216HW,2013-01-16 15:25:00,
2013-01-16 07:30:00,35.6,33.8,30.29,West,270,0.0,0.0,93,0.00,,,0.00,WUHU216HW,2013-01-16 15:30:00,
2013-01-16 07:35:00,35.6,33.8,30.29,West,270,0.0,0.0,93,0.00,,,0.00,WUHU216HW,2013-01-16 15:35:00,
2013-01-16 07:40:00,35.6,33.8,30.30,West,270,0.0,0.0,93,0.00,,,0.00,WUHU216HW,2013-01-16 15:40:00,
2013-01-16 07:45:00,35.6,33.8,30.30,West,270,0.0,0.0,93,0.00,,,0.00,WUHU216HW,2013-01-16 15:45:00,
2013-01-16 07:50:00,35.6,33.8,30.30,West,270,0.0,0.0,93,0.00,,,0.00,WUHU216HW,2013-01-16 15:50:00,
2013-01-16 07:55:00,35.6,33.8,30.30,WNW,293,0.0,0.0,93,0.00,,,0.00,WUHU216HW,2013-01-16 15:55:00,
2013-01-16 08:00:00,35.5,33.6,30.30,WNW,293,0.0,0.0,93,0.00,,,0.00,WUHU216HW,2013-01-16 16:00:00,
2013-01-16 08:05:00,35.5,33.6,30.30,NNE,23,0.4,0.4,93,0.00,,,0.00,WUHU216HW,2013-01-16 16:05:00,
2013-01-16 08:10:00,35.5,33.6,30.30,NNE,23,0.0,0.4,93,0.00,,,0.00,WUHU216HW,2013-01-16 16:10:00,
2013-01-16 08:15:00,35.6,33.8,30.30,NNE,23,0.0,0.4,93,0.00,,,0.00,WUHU216HW,2013-01-16 16:15:00,
2013-01-16 08:20:00,35.6,33.8,30.30,NNE,23,0.0,0.2,93,0.00,,,0.00,WUHU216HW,2013-01-16 16:20:00,
2013-01-16 08:25:00,35.8,33.9,30.30,NNE,23,0.0,0.9,93,0.00,,,0.00,WUHU216HW,2013-01-16 16:25:00,
2013-01-16 08:30:00,35.8,33.9,30.30,NNE,23,0.0,0.9,93,0.00,,,0.00,WUHU216HW,2013-01-16 16:30:00,
2013-01-16 08:35:00,35.8,33.9,30.31,NNW,338,0.0,0.0,93,0.00,,,0.00,WUHU216HW,2013-01-16 16:35:00,
2013-01-16 08:40:00,35.8,33.9,30.31,NNW,338,0.0,0.0,93,0.00,,,0.00,WUHU216HW,2013-01-16 16:40:00,
2013-01-16 08:45:00,35.8,33.9,30.30,NNW,338,0.0,0.0,93,0.00,,,0.00,WUHU216HW,2013-01-16 16:45:00,
2013-01-16 08:50:00,35.8,33.9,30.30,NNW,338,0.0,0.0,93,0.00,,,0.00,WUHU216HW,2013-01-16 16:50:00,
2013-01-16 08:55:00,36.0,34.1,30.30,NNW,338,0.0,0.0,93,0.00,,,0.00,WUHU216HW,2013-01-16 16:55:00,
2013-01-16 09:00:00,36.0,34.1,30.30,NNW,338,0.0,0.0,93,0.00,,,0.00,WUHU216HW,2013-01-16 17:00:00,
2013-01-16 09:05:00,35.8,33.9,30.30,NNW,338,0.0,0.0,93,0.00,,,0.00,WUHU216HW,2013-01-16 17:05:00,
2013-01-16 09:10:00,36.0,34.1,30.30,NNW,338,0.0,0.4,93,0.00,,,0.00,WUHU216HW,2013-01-16 17:10:00,
2013-01-16 09:15:00,36.0,34.1,30.30,NE,45,0.4,0.7,93,0.00,,,0.00,WUHU216HW,2013-01-16 17:15:00,
2013-01-16 09:20:00,36.2,34.3,30.30,NE,45,0.0,0.7,93,0.00,,,0.00,WUHU216HW,2013-01-16 17:20:00,
2013-01-16 09:25:00,35.8,33.7,30.30,WNW,293,0.0,0.4,92,0.00,,,0.00,WUHU216HW,2013-01-16 17:25:00,
2013-01-16 09:30:00,35.5,33.3,30.30,WNW,293,0.0,0.4,92,0.00,,,0.00,WUHU216HW,2013-01-16 17:30:00,
2013-01-16 09:35:00,35.1,33.2,30.30,WNW,293,0.0,0.0,93,0.00,,,0.00,WUHU216HW,2013-01-16 17:35:00,
2013-01-16 09:40:00,35.1,33.2,30.30,NNW,338,0.0,0.0,93,0.00,,,0.00,WUHU216HW,2013-01-16 17:40:00,
2013-01-16 09:45:00,35.3,33.4,30.30,North,0,0.0,0.4,93,0.00,,,0.00,WUHU216HW,2013-01-16 17:45:00,
2013-01-16 09:50:00,35.6,33.8,30.30,North,0,0.0,0.4,93,0.00,,,0.00,WUHU216HW,2013-01-16 17:50:00,
2013-01-16 09:55:00,35.8,33.9,30.30,North,0,0.2,0.2,93,0.00,,,0.00,WUHU216HW,2013-01-16 17:55:00,
2013-01-16 10:00:00,36.0,34.1,30.29,North,0,0.0,0.2,93,0.00,,,0.00,WUHU216HW,2013-01-16 18:00:00,
2013-01-16 10:05:00,36.2,34.3,30.30,North,0,0.0,0.4,93,0.00,,,0.00,WUHU216HW,2013-01-16 18:05:00,
2013-01-16 10:10:00,36.2,34.3,30.29,North,0,0.0,0.4,93,0.00,,,0.00,WUHU216HW,2013-01-16 18:10:00,
2013-01-16 10:15:00,36.4,34.5,30.29,North,0,0.0,0.0,93,0.00,,,0.00,WUHU216HW,2013-01-16 18:15:00,
2013-01-16 10:20:00,36.0,33.8,30.29,North,0,0.2,0.2,92,0.00,,,0.00,WUHU216HW,2013-01-16 18:20:00,
2013-01-16 10:25:00,35.6,33.5,30.29,NNW,338,0.0,0.2,92,0.00,,,0.00,WUHU216HW,2013-01-16 18:25:00,
2013-01-16 10:30:00,35.6,33.8,30.29,NNW,338,0.0,0.0,93,0.00,,,0.00,WUHU216HW,2013-01-16 18:30:00,
2013-01-16 10:35:00,35.8,33.9,30.29,NNW,338,0.0,0.0,93,0.00,,,0.00,WUHU216HW,2013-01-16 18:35:00,
2013-01-16 10:40:00,36.0,34.1,30.29,WNW,293,0.0,0.4,93,0.00,,,0.00,WUHU216HW,2013-01-16 18:40:00,
2013-01-16 10:45:00,36.2,34.3,30.29,North,0,0.0,0.4,93,0.00,,,0.00,WUHU216HW,2013-01-16 18:45:00,
2013-01-16 10:50:00,36.2,34.3,30.29,NNE,23,0.4,0.4,93,0.00,,,0.00,WUHU216HW,2013-01-16 18:50:00,
2013-01-16 10:55:00,36.4,34.5,30.29,WNW,293,0.0,0.9,93,0.00,,,0.00,WUHU216HW,2013-01-16 18:55:00,
2013-01-16 11:00:00,36.2,34.0,30.28,WNW,293,0.0,0.9,92,0.00,,,0.00,WUHU216HW,2013-01-16 19:00:00,
2013-01-16 11:05:00,36.0,33.8,30.28,WNW,293,1.1,1.1,92,0.00,,,0.00,WUHU216HW,2013-01-16 19:05:00,
2013-01-16 11:10:00,35.8,33.7,30.28,West,270,0.4,1.1,92,0.00,,,0.00,WUHU216HW,2013-01-16 19:10:00,
2013-01-16 11:15:00,35.6,33.5,30.28,West,270,0.4,1.1,92,0.00,,,0.00,WUHU216HW,2013-01-16 19:15:00,
2013-01-16 11:20:00,35.6,33.8,30.27,West,270,0.0,0.4,93,0.00,,,0.00,WUHU216HW,2013-01-16 19:20:00,
2013-01-16 11:25:00,36.0,34.1,30.27,West,270,0.0,0.4,93,0.00,,,0.00,WUHU216HW,2013-01-16 19:25:00,
2013-01-16 11:30:00,36.0,34.1,30.27,NNE,23,0.2,0.7,93,0.00,,,0.00,WUHU216HW,2013-01-16 19:30:00,
2013-01-16 11:35:00,36.4,34.5,30.27,NE,45,0.0,0.7,93,0.00,,,0.00,WUHU216HW,2013-01-16 19:35:00,
2013-01-16 11:40:00,36.7,34.8,30.27,NE,45,0.0,0.9,93,0.00,,,0.00,WUHU216HW,2013-01-16 19:40:00,
2013-01-16 11:45:00,36.9,34.7,30.26,ENE,68,0.0,1.1,92,0.00,,,0.00,WUHU216HW,2013-01-16 19:45:00,
2013-01-16 11:50:00,36.4,34.2,30.26,West,270,0.4,1.1,92,0.00,,,0.00,WUHU216HW,2013-01-16 19:50:00,
2013-01-16 11:55:00,36.2,34.0,30.26,West,270,0.0,0.9,92,0.00,,,0.00,WUHU216HW,2013-01-16 19:55:00,
2013-01-16 12:00:00,36.0,33.8,30.25,West,270,0.0,0.7,92,0.00,,,0.00,WUHU216HW,2013-01-16 20:00:00,
2013-01-16 12:05:00,36.0,33.8,30.25,West,270,0.0,0.7,92,0.00,,,0.00,WUHU216HW,2013-01-16 20:05:00,
2013-01-16 12:10:00,36.4,34.2,30.25,West,270,0.4,0.4,92,0.00,,,0.00,WUHU216HW,2013-01-16 20:10:00,
2013-01-16 12:15:00,36.5,34.4,30.25,West,270,0.0,0.4,92,0.00,,,0.00,WUHU216HW,2013-01-16 20:15:00,
2013-01-16 12:20:00,36.9,34.7,30.25,NW,315,0.0,0.4,92,0.00,,,0.00,WUHU216HW,2013-01-16 20:20:00,
2013-01-16 12:25:00,37.1,34.9,30.25,NNW,338,0.0,0.4,92,0.00,,,0.00,WUHU216HW,2013-01-16 20:25:00,
2013-01-16 12:30:00,37.4,35.3,30.24,NNE,23,0.0,0.4,92,0.00,,,0.00,WUHU216HW,2013-01-16 20:30:00,
2013-01-16 12:35:00,37.4,35.3,30.24,NNE,23,0.0,0.2,92,0.00,,,0.00,WUHU216HW,2013-01-16 20:35:00,
2013-01-16 12:40:00,37.6,35.5,30.24,NNE,23,0.0,0.4,92,0.00,,,0.00,WUHU216HW,2013-01-16 20:40:00,
2013-01-16 12:45:00,37.8,35.6,30.24,NNE,23,0.9,0.9,92,0.00,,,0.00,WUHU216HW,2013-01-16 20:45:00,
2013-01-16 12:50:00,38.0,35.6,30.23,NNE,23,0.4,0.9,91,0.00,,,0.00,WUHU216HW,2013-01-16 20:50:00,
2013-01-16 12:55:00,38.2,35.7,30.23,ESE,113,0.0,1.1,91,0.00,,,0.00,WUHU216HW,2013-01-16 20:55:00,
2013-01-16 13:00:00,38.2,35.7,30.23,East,90,0.4,1.1,91,0.00,,,0.00,WUHU216HW,2013-01-16 21:00:00,
2013-01-16 13:05:00,38.2,35.5,30.23,East,90,0.0,0.7,90,0.00,,,0.00,WUHU216HW,2013-01-16 21:05:00,
2013-01-16 13:10:00,37.6,34.9,30.23,WSW,248,0.0,0.7,90,0.00,,,0.00,WUHU216HW,2013-01-16 21:10:00,
2013-01-16 13:15:00,37.3,34.6,30.23,WSW,248,0.0,0.7,90,0.00,,,0.00,WUHU216HW,2013-01-16 21:15:00,
2013-01-16 13:20:00,37.1,34.4,30.22,WSW,248,0.0,0.2,90,0.00,,,0.00,WUHU216HW,2013-01-16 21:20:00,
2013-01-16 13:25:00,36.7,34.0,30.22,WSW,248,0.2,0.2,90,0.00,,,0.00,WUHU216HW,2013-01-16 21:25:00,
2013-01-16 13:30:00,37.1,34.4,30.22,WSW,248,0.0,0.4,90,0.00,,,0.00,WUHU216HW,2013-01-16 21:30:00,
2013-01-16 13:35:00,37.1,34.4,30.22,North,0,0.0,0.4,90,0.00,,,0.00,WUHU216HW,2013-01-16 21:35:00,
2013-01-16 13:40:00,37.3,34.8,30.22,North,0,0.0,0.4,91,0.00,,,0.00,WUHU216HW,2013-01-16 21:40:00,
2013-01-16 13:45:00,37.4,35.0,30.22,North,0,0.0,0.4,91,0.00,,,0.00,WUHU216HW,2013-01-16 21:45:00,
2013-01-16 13:50:00,37.8,35.4,30.22,North,0,0.0,0.2,91,0.00,,,0.00,WUHU216HW,2013-01-16 21:50:00,
2013-01-16 13:55:00,38.0,35.3,30.22,NNE,23,0.4,0.9,90,0.00,,,0.00,WUHU216HW,2013-01-16 21:55:00,
2013-01-16 14:00:00,38.0,35.3,30.22,NNE,23,0.4,1.1,90,0.00,,,0.00,WUHU216HW,2013-01-16 22:00:00,
2013-01-16 14:05:00,38.2,35.5,30.22,NNE,23,0.4,1.1,90,0.00,,,0.00,WUHU216HW,2013-01-16 22:05:00,
2013-01-16 14:10:00,38.2,35.5,30.22,West,270,1.1,1.1,90,0.00,,,0.00,WUHU216HW,2013-01-16 22:10:00,
2013-01-16 14:15:00,37.6,34.9,30.22,West,270,0.0,1.1,90,0.00,,,0.00,WUHU216HW,2013-01-16 22:15:00,
2013-01-16 14:20:00,37.4,34.7,30.22,West,270,0.0,1.1,90,0.00,,,0.00,WUHU216HW,2013-01-16 22:20:00,
2013-01-16 14:25:00,37.6,35.2,30.22,North,0,0.0,0.0,91,0.00,,,0.00,WUHU216HW,2013-01-16 22:25:00,
2013-01-16 14:30:00,37.8,35.1,30.22,ESE,113,0.0,0.2,90,0.00,,,0.00,WUHU216HW,2013-01-16 22:30:00,
2013-01-16 14:35:00,37.6,34.9,30.21,WSW,248,0.0,0.2,90,0.00,,,0.00,WUHU216HW,2013-01-16 22:35:00,
2013-01-16 14:40:00,37.3,34.3,30.22,NNW,338,0.0,0.4,89,0.00,,,0.00,WUHU216HW,2013-01-16 22:40:00,
2013-01-16 14:45:00,37.1,34.4,30.21,WSW,248,1.6,1.6,90,0.00,,,0.00,WUHU216HW,2013-01-16 22:45:00,
2013-01-16 14:50:00,37.1,34.4,30.22,NNE,23,0.4,1.6,90,0.00,,,0.00,WUHU216HW,2013-01-16 22:50:00,
2013-01-16 14:55:00,37.1,34.4,30.22,ESE,113,0.0,1.6,90,0.00,,,0.00,WUHU216HW,2013-01-16 22:55:00,
2013-01-16 15:00:00,37.4,34.7,30.22,East,90,0.0,0.4,90,0.00,,,0.00,WUHU216HW,2013-01-16 23:00:00,
2013-01-16 15:05:00,37.4,34.7,30.22,East,90,0.0,0.4,90,0.00,,,0.00,WUHU216HW,2013-01-16 23:05:00,
2013-01-16 15:10:00,37.6,34.9,30.22,East,90,0.0,0.4,90,0.00,,,0.00,WUHU216HW,2013-01-16 23:10:00,
2013-01-16 15:15:00,37.6,34.9,30.22,East,90,0.0,0.0,90,0.00,,,0.00,WUHU216HW,2013-01-16 23:15:00,
2013-01-16 15:20:00,37.8,35.1,30.21,East,90,0.2,0.2,90,0.00,,,0.00,WUHU216HW,2013-01-16 23:20:00,
2013-01-16 16:28:00,37.8,35.1,30.21,East,90,0.2,0.2,90,0.00,,,0.00,WUHU216HW,2013-01-17 00:28:00,
2013-01-16 16:33:00,37.8,35.1,30.21,East,90,0.2,0.2,90,0.00,,,0.00,WUHU216HW,2013-01-17 00:33:00,
2013-01-16 17:00:00,37.8,35.1,30.20,North,0,0.2,0.2,90,0.00,,,0.00,WUHU216HW,2013-01-17 01:00:00,
2013-01-16 17:05:00,37.8,35.1,30.20,North,0,0.0,0.4,90,0.00,,,0.00,WUHU216HW,2013-01-17 01:05:00,
2013-01-16 17:10:00,37.6,34.9,30.20,NNE,23,0.0,1.1,90,0.00,,,0.00,WUHU216HW,2013-01-17 01:10:00,
2013-01-16 17:15:00,37.6,34.9,30.20,NNE,23,0.4,1.1,90,0.00,,,0.00,WUHU216HW,2013-01-17 01:15:00,
2013-01-16 17:20:00,37.4,34.7,30.20,NNE,23,0.2,0.9,90,0.00,,,0.00,WUHU216HW,2013-01-17 01:20:00,
2013-01-16 17:25:00,37.3,34.3,30.20,NNE,23,0.9,0.9,89,0.00,,,0.00,WUHU216HW,2013-01-17 01:25:00,
2013-01-16 17:30:00,37.1,34.1,30.20,NNE,23,0.4,0.9,89,0.00,,,0.00,WUHU216HW,2013-01-17 01:30:00,
2013-01-16 17:35:00,37.1,34.1,30.20,ENE,68,0.9,1.1,89,0.00,,,0.00,WUHU216HW,2013-01-17 01:35:00,
2013-01-16 17:40:00,37.1,34.1,30.20,ENE,68,0.0,1.1,89,0.00,,,0.00,WUHU216HW,2013-01-17 01:40:00,
2013-01-16 17:45:00,36.9,33.9,30.20,SW,225,0.0,0.9,89,0.00,,,0.00,WUHU216HW,2013-01-17 01:45:00,
2013-01-16 17:50:00,36.4,33.4,30.20,SSE,158,0.0,0.2,89,0.00,,,0.00,WUHU216HW,2013-01-17 01:50:00,
2013-01-16 17:55:00,36.4,33.4,30.20,SSE,158,0.0,0.0,89,0.00,,,0.00,WUHU216HW,2013-01-17 01:55:00,
2013-01-16 18:00:00,36.4,33.7,30.20,SSE,158,0.0,0.0,90,0.00,,,0.00,WUHU216HW,2013-01-17 02:00:00,
2013-01-16 18:05:00,36.4,33.7,30.19,SSE,158,0.0,0.0,90,0.00,,,0.00,WUHU216HW,2013-01-17 02:05:00,
2013-01-16 18:10:00,36.4,33.7,30.20,SSE,158,0.0,0.0,90,0.00,,,0.00,WUHU216HW,2013-01-17 02:10:00,
2013-01-16 18:15:00,36.4,33.7,30.19,ENE,68,0.4,0.7,90,0.00,,,0.00,WUHU216HW,2013-01-17 02:15:00,
2013-01-16 18:20:00,36.4,33.7,30.19,ENE,68,0.0,0.7,90,0.00,,,0.00,WUHU216HW,2013-01-17 02:20:00,
2013-01-16 18:25:00,36.4,33.7,30.19,ENE,68,0.0,0.4,90,0.00,,,0.00,WUHU216HW,2013-01-17 02:25:00,
2013-01-16 18:30:00,36.2,33.5,30.19,ENE,68,0.0,0.4,90,0.00,,,0.00,WUHU216HW,2013-01-17 02:30:00,
2013-01-16 18:35:00,36.0,33.3,30.19,ENE,68,0.0,0.4,90,0.00,,,0.00,WUHU216HW,2013-01-17 02:35:00,
2013-01-16 18:40:00,35.6,32.9,30.19,West,270,0.0,0.2,90,0.00,,,0.00,WUHU216HW,2013-01-17 02:40:00,
2013-01-16 18:45:00,35.6,33.2,30.19,West,270,0.4,0.4,91,0.00,,,0.00,WUHU216HW,2013-01-17 02:45:00,
2013-01-16 18:50:00,35.5,33.0,30.19,West,270,0.0,0.4,91,0.00,,,0.00,WUHU216HW,2013-01-17 02:50:00,
2013-01-16 18:55:00,35.6,33.2,30.19,West,270,0.0,0.4,91,0.00,,,0.00,WUHU216HW,2013-01-17 02:55:00,
2013-01-16 19:00:00,35.6,33.5,30.19,West,270,0.0,0.0,92,0.00,,,0.00,WUHU216HW,2013-01-17 03:00:00,
2013-01-16 19:05:00,35.6,33.2,30.19,West,270,0.0,0.0,91,0.00,,,0.00,WUHU216HW,2013-01-17 03:05:00,
2013-01-16 19:10:00,35.6,33.5,30.19,West,270,0.0,0.0,92,0.00,,,0.00,WUHU216HW,2013-01-17 03:10:00,
2013-01-16 19:15:00,35.8,33.7,30.19,WNW,293,0.0,0.0,92,0.00,,,0.00,WUHU216HW,2013-01-17 03:15:00,
2013-01-16 19:20:00,35.8,33.4,30.19,WNW,293,0.0,0.0,91,0.00,,,0.00,WUHU216HW,2013-01-17 03:20:00,
2013-01-16 19:25:00,36.0,33.8,30.19,WNW,293,0.0,0.0,92,0.00,,,0.00,WUHU216HW,2013-01-17 03:25:00,
2013-01-16 19:30:00,36.0,33.8,30.19,WNW,293,0.0,0.0,92,0.00,,,0.00,WUHU216HW,2013-01-17 03:30:00,
2013-01-16 19:35:00,36.0,33.6,30.19,WNW,293,0.0,0.0,91,0.00,,,0.00,WUHU216HW,2013-01-17 03:35:00,
2013-01-16 19:40:00,36.0,33.6,30.20,NW,315,0.0,0.0,91,0.00,,,0.00,WUHU216HW,2013-01-17 03:40:00,
2013-01-16 19:45:00,36.2,33.8,30.20,NW,315,0.0,0.0,91,0.00,,,0.00,WUHU216HW,2013-01-17 03:45:00,
2013-01-16 19:50:00,36.0,33.6,30.20,NW,315,0.0,0.0,91,0.00,,,0.00,WUHU216HW,2013-01-17 03:50:00,
2013-01-16 19:55:00,36.0,33.6,30.20,NNE,23,0.0,0.4,91,0.00,,,0.00,WUHU216HW,2013-01-17 03:55:00,
2013-01-16 20:00:00,35.8,33.4,30.20,NNE,23,0.0,0.4,91,0.00,,,0.00,WUHU216HW,2013-01-17 04:00:00,
2013-01-16 20:05:00,35.5,33.0,30.20,West,270,0.0,0.2,91,0.00,,,0.00,WUHU216HW,2013-01-17 04:05:00,
2013-01-16 20:10:00,35.3,33.1,30.20,West,270,0.0,0.2,92,0.00,,,0.00,WUHU216HW,2013-01-17 04:10:00,
2013-01-16 20:15:00,35.3,33.1,30.19,West,270,0.0,0.2,92,0.00,,,0.00,WUHU216HW,2013-01-17 04:15:00,
2013-01-16 20:20:00,35.3,33.1,30.19,NNE,23,0.4,0.4,92,0.00,,,0.00,WUHU216HW,2013-01-17 04:20:00,
2013-01-16 20:25:00,35.5,33.3,30.19,NNE,23,0.0,0.4,92,0.00,,,0.00,WUHU216HW,2013-01-17 04:25:00,
2013-01-16 20:30:00,35.6,33.5,30.20,NNE,23,0.0,0.4,92,0.00,,,0.00,WUHU216HW,2013-01-17 04:30:00,
2013-01-16 20:35:00,35.6,33.5,30.20,NNE,23,0.0,0.0,92,0.00,,,0.00,WUHU216HW,2013-01-17 04:35:00,
2013-01-16 20:40:00,35.6,33.5,30.19,NNE,23,0.0,0.0,92,0.00,,,0.00,WUHU216HW,2013-01-17 04:40:00,
2013-01-16 20:45:00,35.5,33.3,30.19,West,270,0.0,0.9,92,0.00,,,0.00,WUHU216HW,2013-01-17 04:45:00,
2013-01-16 20:50:00,35.5,33.3,30.19,West,270,0.0,0.9,92,0.00,,,0.00,WUHU216HW,2013-01-17 04:50:00,
2013-01-16 20:55:00,35.5,33.3,30.19,West,270,0.0,0.0,92,0.00,,,0.00,WUHU216HW,2013-01-17 04:55:00,
2013-01-16 21:01:00,35.5,33.3,30.19,West,270,0.0,0.0,92,0.00,,,0.00,WUHU216HW,2013-01-17 05:01:00,
2013-01-16 21:02:00,35.6,33.5,30.19,NNW,338,0.0,0.0,92,0.00,,,0.00,WUHU216HW,2013-01-17 05:02:00,
2013-01-16 21:03:00,35.6,33.5,30.19,NNW,338,0.0,0.0,92,0.00,,,0.00,WUHU216HW,2013-01-17 05:03:00,
2013-01-16 21:04:00,35.6,33.5,30.19,North,0,0.0,0.0,92,0.00,,,0.00,WUHU216HW,2013-01-17 05:04:00,
2013-01-16 21:09:00,35.6,33.5,30.20,NNE,23,0.0,1.1,92,0.00,,,0.00,WUHU216HW,2013-01-17 05:09:00,
2013-01-16 21:14:00,35.6,33.5,30.20,NNE,23,0.9,1.1,92,0.00,,,0.00,WUHU216HW,2013-01-17 05:14:00,
2013-01-16 21:19:00,35.6,33.5,30.19,NNE,23,0.0,0.9,92,0.00,,,0.00,WUHU216HW,2013-01-17 05:19:00,
2013-01-16 21:24:00,35.6,33.5,30.19,NNE,23,0.0,0.9,92,0.00,,,0.00,WUHU216HW,2013-01-17 05:24:00,
2013-01-16 21:29:00,35.6,33.5,30.19,NNE,23,0.0,0.4,92,0.00,,,0.00,WUHU216HW,2013-01-17 05:29:00,
2013-01-16 21:34:00,35.6,33.5,30.19,NNE,23,0.0,0.4,92,0.00,,,0.00,WUHU216HW,2013-01-17 05:34:00,
2013-01-16 21:39:00,35.6,33.5,30.19,NNE,23,0.0,0.4,92,0.00,,,0.00,WUHU216HW,2013-01-17 05:39:00,
2013-01-16 21:44:00,35.8,33.7,30.19,NNE,23,0.4,0.4,92,0.00,,,0.00,WUHU216HW,2013-01-17 05:44:00,
2013-01-16 21:49:00,35.8,33.7,30.19,NNE,23,0.2,0.7,92,0.00,,,0.00,WUHU216HW,2013-01-17 05:49:00,
2013-01-16 21:54:00,35.6,33.5,30.19,NNE,23,0.0,0.7,92,0.00,,,0.00,WUHU216HW,2013-01-17 05:54:00,
2013-01-16 21:59:00,35.6,33.5,30.19,NNE,23,0.7,0.7,92,0.00,,,0.00,WUHU216HW,2013-01-17 05:59:00,
2013-01-16 22:01:00,35.6,33.5,30.19,NNE,23,0.0,0.7,92,0.00,,,0.00,WUHU216HW,2013-01-17 06:01:00,